Regional Weather Roundup
Issued by NWS Little Rock, AR

Home | Current Version | Previous Version | Graphics & Text | Print | Product List | Glossary On
Versions: 1 2 3 4 5 6 7 8 9 10 11 12 13 14 15 16 17 18 19 20 21 22 23 24 25 26 27 28 29 30 31
000
ASUS44 KLZK 240705
RWRLZK

WEATHER ROUNDUP FOR ARKANSAS
NATIONAL WEATHER SERVICE LITTLE ROCK AR
200 AM CDT FRI MAR 24 2017

NOTE: "FAIR" INDICATES FEW OR NO CLOUDS BELOW 12,000 FEET WITH NO
SIGNIFICANT WEATHER AND/OR OBSTRUCTIONS TO VISIBILITY.

ARZ001-003-010-029-240800-
NORTHWEST ARKANSAS

CITY           SKY/WX    TMP DP  RH WIND       PRES   REMARKS
FAYETTEVILLE   CLEAR     69  46  43 S15G28    29.92R
FORT SMITH     CLOUDY    74  39  28 S10G21    29.93R
HARRISON       CLEAR     70  46  42 S26G40    29.94S
BENTONVILLE    CLEAR     70  45  40 S15G24    29.91F
ROGERS         CLEAR     70  46  42 S21G26    29.91S
SILOAM SPGS    CLEAR     70  45  40 S16G24    29.90S
HIGHFILL       CLEAR     69  47  45 S20G25    29.90S
$$

ARZ004-005-016-240800-
NORTH CENTRAL ARKANSAS

CITY           SKY/WX    TMP DP  RH WIND       PRES   REMARKS
BATESVILLE     CLEAR     66  50  55 SE8       30.03F
FLIPPIN        CLEAR     72  45  37 S10G18    29.94F
MTN HOME       CLEAR     69  47  45 S10       29.96F
$$

ARZ040-041-240800-
WEST CENTRAL ARKANSAS

CITY           SKY/WX    TMP DP  RH WIND       PRES   REMARKS
MENA           PTCLDY    72  48  43 S8G20     29.98S
MOUNT IDA      CLEAR     72  45  37 VRB6      29.96F
$$

ARZ009-017-025-026-028-240800-
NORTHEAST ARKANSAS

CITY           SKY/WX    TMP DP  RH WIND       PRES   REMARKS
CORNING        FAIR      66  55  68 S15G21    30.03S
JONESBORO      CLEAR     63  53  70 S12       30.05F
NEWPORT        CLEAR     64  55  72 S14       30.04S
WALNUT RIDGE   CLEAR     64  52  63 S15       30.02S
BLYTHEVILLE    CLEAR     67  55  65 S15       30.07F
$$

ARZ022-023-033-042-044-240800-
CENTRAL ARKANSAS

CITY           SKY/WX    TMP DP  RH WIND       PRES   REMARKS
LITTLE ROCK    MOCLDY    65  51  60 S9        30.03F
N LITTLE ROCK    N/A     67  51  56 S6        30.03F
JACKSONVILLE   PTCLDY    66  52  59 SE7       30.02F
CONWAY           N/A     72  48  43 S14       29.99S
SEARCY         PTCLDY    65  54  67 S9        30.05F
HOT SPRINGS    PTCLDY    71  49  45 S7G18     30.01F
RUSSELLVILLE   CLEAR     64  46  52 E5        29.98S
CLINTON        FAIR      52  50  93 CALM      30.01F
$$

ARZ036-240800-
EAST ARKANSAS

CITY           SKY/WX    TMP DP  RH WIND       PRES   REMARKS
WEST MEMPHIS   CLEAR     68  55  63 S14       30.09R
$$

ARZ050-053-066-070-073-240800-
SOUTHWEST ARKANSAS

CITY           SKY/WX    TMP DP  RH WIND       PRES   REMARKS
ARKADELPHIA    FAIR      57  53  86 SE3       30.03S
CAMDEN         CLEAR     64  46  52 SE7       30.04F
TEXARKANA      CLEAR     66  50  56 S10       29.99F
EL DORADO      PTCLDY    64  50  60 SE6       30.05F
DE QUEEN       PTCLDY    69  50  50 VRB6      29.96S
$$

ARZ056-057-069-240800-
SOUTHEAST ARKANSAS

CITY           SKY/WX    TMP DP  RH WIND       PRES   REMARKS
PINE BLUFF     PTCLDY    70  53  54 S18       30.06F
STUTTGART      PTCLDY    68  48  49 S12       30.07F
MONTICELLO     PTCLDY    66  54  65 S3        30.08S

$$






USA.gov is the U.S. government's official web portal to all federal, state and local government web resources and services.